Regional Weather Roundup
Issued by NWS Grand Forks, ND

Home | Current Version | Previous Version | Graphics & Text | Print | Product List | Glossary On
Versions: 1 2 3 4 5 6 7 8 9 10 11 12 13 14 15 16 17 18 19 20 21 22 23 24 25 26 27 28 29 30 31 32 33 34 35 36 37 38 39 40 41 42 43 44 45 46 47 48 49 50
000
ASUS43 KFGF 250631
RWRFGF
PRAIRIE TO PINES  WEATHER ROUNDUP
NATIONAL WEATHER SERVICE EASTERN NORTH DAKOTA/GRAND FORKS ND
100 AM CDT THU AUG 25 2016

 **SATELLITE DATA USED TO AUGMENT SKY COVER AT AUTOMATED STATIONS**
 *****  WEATHER ACROSS EASTERN NORTH DAKOTA  *****

CITY           SKY/WX    TMP DP  RH WIND       PRES   REMARKS
GRAND FORKS    PTCLDY    58  51  78 SW9       29.89S
6HR MIN TEMP:  56; 6HR MAX TEMP:  72;

GRAND FRKS AFB CLEAR     59  51  76 W10       29.90S
GRAND FRKS NWS   N/A     57 N/A N/A SW12        N/A
DEVILS LAKE    MOCLDY    57  55  94 W16       29.94R
6HR MIN TEMP:  58; 6HR MAX TEMP:  67;

FARGO          CLEAR     61  50  67 W12       29.96R
WAHPETON ARPT  CLEAR     55  50  82 SW10      30.00R
$$

 ***** WEATHER ACROSS CENTRAL AND WESTERN NORTH DAKOTA  *****

CITY           SKY/WX    TMP DP  RH WIND       PRES   REMARKS
BISMARCK       CLOUDY    58  49  72 W14G23    30.08S
6HR MIN TEMP:  57; 6HR MAX TEMP:  71;

MINOT          MOCLDY    56  52  86 W21       30.02S
6HR MIN TEMP:  55; 6HR MAX TEMP:  63; 6HR PCP: TRACE;

JAMESTOWN      CLEAR     57  50  77 W15       30.00S
6HR MIN TEMP:  57; 6HR MAX TEMP:  69;

MINOT AFB      CLOUDY    55  51  89 NW18G24   30.01S
GARRISON         N/A     54  50  86 W13       30.06R
WILLISTON      MOCLDY    55  46  71 NW13      30.15
6HR MIN TEMP:  54; 6HR MAX TEMP:  59;

DICKINSON      CLOUDY    52  46  80 W15       30.14S
6HR MIN TEMP:  51; 6HR MAX TEMP:  63;

HETTINGER      CLEAR     51  46  83 W13       30.19S
6HR MIN TEMP:  51; 6HR MAX TEMP:  69;

$$

 *****  OTHER AIRPORT OBSERVATIONS IN OUR AREA  *****

CITY           SKY/WX    TMP DP  RH WIND       PRES   REMARKS
WALHALLA       FAIR      57  54  88 W7        29.86S
GRAFTON AIRPOR FAIR      55  54  94 SW8       29.89S
VALLEY CITY AR FAIR      57  55  94 W13       30.01S
CANDO          MOCLDY    57  57 100 W13       29.95R
CAVALIER APRT  FAIR      57  54  88 NW6       29.86R
GWINNER        FAIR      55  52  88 W8        30.02S
SHEYENNE NWR     N/A     55  50  82 W7        29.95S
ROLLA          CLOUDY    54  54 100 NW10G16   29.94R
 ***** THE ABOVE OBSERVATIONS ARE NON NWS ARE NOT QUALITY
       CONTROLLED AND MAY MIS-REPORT RAIN FOR SNOW...
$$

  *****  WEATHER ACROSS NORTHERN MINNESOTA  *****

CITY           SKY/WX    TMP DP  RH WIND       PRES   REMARKS
FLAG ISLAND    CLEAR     61  54  77 SW5       29.82F HAZE
WARROAD        CLEAR     55  52  88 S3        29.85F
ROSEAU         CLEAR     57  54  88 SW6       29.85S
HALLOCK        CLEAR     57  54  88 SW10      29.85S
THF RVR FALLS  CLEAR     59  52  77 W9        29.90S
6HR MIN TEMP:  58; 6HR MAX TEMP:  71;

BAUDETTE       CLEAR     54  51  90 SW6       29.86S
6HR MIN TEMP:  54; 6HR MAX TEMP:  70;

WASKISH        CLEAR     66  55  68 W15G23    29.89S
CROOKSTON      CLEAR     59  52  77 W10       29.91S
STEPHEN NDAWN    N/A     57  54  88 SW5         N/A
GREENBUSH NDAW   N/A     57  54  88 SW7         N/A
$$
  *****  WEATHER ACROSS CENTRAL AND WEST MINNESOTA  *****

CITY           SKY/WX    TMP DP  RH WIND       PRES   REMARKS
FOSSTON        CLEAR     52  48  87 SW8       29.94S
BEMIDJI        CLEAR     57  51  82 SW7       29.93S
PARK RAPIDS    CLEAR     55  51  86 S6        29.96S
6HR MIN TEMP:  55; 6HR MAX TEMP:  71;

ELBOW LAKE     FAIR      55  53  94 SW8       30.01S
WADENA         CLEAR     54  52  94 SW5       29.98R
DETROIT LAKES  CLEAR     61  52  72 W7        29.98S
MOORHEAD       CLEAR     57  52  82 SW5       29.97S
FERGUS FALLS   CLEAR     55  52  88 SW7       30.01S
MORRIS MN      CLEAR     57  55  94 SW5       30.01S
STAPLES        CLEAR     57  52  82 SW5       29.98S
$$
  *****  WEATHER ELSEWHERE ACROSS MINNESOTA  *****

CITY           SKY/WX    TMP DP  RH WIND       PRES   REMARKS
DULUTH         CLEAR     58  54  86 W8        29.94S
6HR MIN TEMP:  58; 6HR MAX TEMP:  74;

INTRNTL FALLS  CLEAR     53  50  89 SW3       29.87F
6HR MIN TEMP:  50; 6HR MAX TEMP:  71;

ELY            CLEAR     57  52  82 SW3       29.90F
CLOQUET        CLEAR     61  54  77 SW6       29.95R
WHEATON        CLEAR     59  57  94 SW6       30.03R
BRAINERD       CLEAR     59  55  87 SW6       29.97S
6HR MIN TEMP:  56; 6HR MAX TEMP:  72;

HIBBING        CLEAR     49  48  97 CALM      29.93S FOG
6HR MIN TEMP:  50; 6HR MAX TEMP:  70;

ALEXANDRIA     CLEAR     59  55  87 SW7       30.02R
6HR MIN TEMP:  58; 6HR MAX TEMP:  71;

SAINT CLOUD    CLEAR     60  58  92 SW3       30.00S
6HR MIN TEMP:  59; 6HR MAX TEMP:  71;

MINNEAPOLIS    MOCLDY    66  59  78 W5        30.01S
6HR MIN TEMP:  66; 6HR MAX TEMP:  74;

$$

  *****  WEATHER ACROSS SOUTH DAKOTA  *****

CITY           SKY/WX    TMP DP  RH WIND       PRES   REMARKS
SIOUX FALLS    CLEAR     62  57  83 CALM      30.08R
6HR MIN TEMP:  61; 6HR MAX TEMP:  72;

BROOKINGS      CLEAR     58  54  86 SW5       30.06S
WATERTOWN      CLEAR     58  55  90 W8        30.05R
6HR MIN TEMP:  58; 6HR MAX TEMP:  71;

HURON          CLEAR     60  53  77 W10       30.07R
6HR MIN TEMP:  59; 6HR MAX TEMP:  73;

SISSETON         N/A     54  52  93 CALM      30.01R
ABERDEEN       CLEAR     60  49  66 W9        30.07R
6HR MIN TEMP:  55; 6HR MAX TEMP:  77;

MITCHELL       CLEAR     63  54  72 W7        30.08S
PIERRE         CLEAR     60  47  61 NW10      30.12R
6HR MIN TEMP:  59; 6HR MAX TEMP:  77;

MOBRIDGE       PTCLDY    62  46  55 NW12      30.09
RAPID CITY     MOCLDY    57  45  64 N10       30.24R
6HR MIN TEMP:  57; 6HR MAX TEMP:  68;

$$

  *****  SOME WEATHER IN NEARBY STATES *****

CITY           SKY/WX    TMP DP  RH WIND       PRES   REMARKS
GLASGOW MT     CLOUDY    52  44  74 SW3       30.23
6HR MIN TEMP:  52; 6HR MAX TEMP:  60;

GREAT FALLS MT CLOUDY    54  41  61 S5        30.33F
6HR MIN TEMP:  51; 6HR MAX TEMP:  62;

CHEYENNE WY    CLOUDY    51  46  83 E3        30.27F
6HR MIN TEMP:  50; 6HR MAX TEMP:  62; 6HR PCP: TRACE;

SCOTTSBLUFF NE CLOUDY    55  49  80 S7        30.22S
6HR MIN TEMP:  55; 6HR MAX TEMP:  71; 6HR PCP: TRACE;

OMAHA NE       PTCLDY    63  60  90 N6        30.06
6HR MIN TEMP:  62; 6HR MAX TEMP:  72; 6HR PCP: TRACE;

DES MOINES IA  CLOUDY    72  67  84 N5        30.03R
6HR MIN TEMP:  71; 6HR MAX TEMP:  76; 6HR PCP:  0.13;

DAVENPORT IA   CLOUDY    71  69  93 SW6       30.00R
6HR MIN TEMP:  71; 6HR MAX TEMP:  80; 6HR PCP:  0.50;

CHICAGO IL     RAIN      74  72  93 W10       29.98R
6HR MIN TEMP:  76; 6HR MAX TEMP:  82; 6HR PCP:  0.01;

EAU CLAIRE WI  CLOUDY    64  59  83 CALM      29.99R
6HR MIN TEMP:  64; 6HR MAX TEMP:  74;

LA CROSSE WI   CLOUDY    69  32  25 N5        29.99
6HR MIN TEMP:  68; 6HR MAX TEMP:  79;

$$

  *****  SOME NATIONAL WEATHER *****

CITY           SKY/WX    TMP DP  RH WIND       PRES   REMARKS
LA GUARDIA NY  PTCLDY    75  60  59 SW10      30.14F
6HR MIN TEMP:  75; 6HR MAX TEMP:  80;

RALEIGH NC     PTCLDY    70  63  78 SE3       30.19F
6HR MIN TEMP:  69; 6HR MAX TEMP:  83;

ATLANTA GA     PTCLDY    74  71  91 E6        30.19F
6HR MIN TEMP:  74; 6HR MAX TEMP:  79;

NEW ORLEANS LA CLOUDY    84  74  71 CALM      30.07F HX  91
6HR MIN TEMP:  83; 6HR MAX TEMP:  86;

OKLAHOMA CITY  PTCLDY    78  69  73 S9        30.04S
6HR MIN TEMP:  78; 6HR MAX TEMP:  90;

ALBUQUERQUE NM PTCLDY    64  49  57 SE8       30.22
6HR MIN TEMP:  64; 6HR MAX TEMP:  76;

SALT LAKE CITY PTCLDY    69  28  21 CALM      30.09F
6HR MIN TEMP:  67; 6HR MAX TEMP:  82;

LOS ANGELES CA PTCLDY    65  59  81 W5        29.96S
6HR MIN TEMP:  65; 6HR MC1F1C2F2C3F3C4F4C5F5C6F6C7F7C8F8C9F9CaFaCbFbCcFcCd!



USA.gov is the U.S. government's official web portal to all federal, state and local government web resources and services.